Terug naar catalogus

BLITS DEB

ActiefSSO
NORAD 39119·DEBRIS·🇷🇺 Russia

Gelanceerd Sep 17, 2009 vanaf Baikonur Cosmodrome

Loading…

Volgende Passages (komende 24 uur)

TLE

VersSource: Space-Track

Epoch: Sep 14, 2026, 08:15 UTC

1 39119U 09049J   26257.34402269  .00000040  00000-0  37833-4 0  9999
2 39119  98.7772 220.3086 0005144  58.9796 301.1886 14.22722476707305

Volg BLITS DEB in realtime met AllMySat

Download on the App Store